Newark Heath, OH

5:28 PM EDT on June 23, 2017 (GMT -0400)
Newark Heath

Weather History for KVTA - May, 2013

Change the Weather History Date:

Monday, May 27, 2013

  Actual Average Record
Temperature  
Mean Temperature 56 °F -  
Max Temperature 69 °F 75 °F 95 °F (2012)
Min Temperature 45 °F 49 °F 36 °F (1949)
Degree Days  
Heating Degree Days 10    
Growing Degree Days 6 (Base 50)    
Moisture  
Dew Point 46 °F    
Average Humidity 68    
Maximum Humidity 90    
Minimum Humidity 42    
Precipitation  
Precipitation 0.07 in - - ()
Sea Level Pressure  
Sea Level Pressure 30.17 in    
Wind  
Wind Speed 3 mph (ESE)    
Max Wind Speed 13 mph    
Max Gust Speed 20 mph    
Visibility 10 miles    
Events Rain    
Averages and records for this station are not official NWS values.
T = Trace of Precipitation, MM = Missing Value Source: NWS Daily Summary

Daily Weather History Graph

Daily Weather History Graph

Search for Another Location

Airport or City:

Trip Planner

Search our weather history database for the weather conditions in past years. The results will help you decide how hot, cold, wet, or windy it might be!

Date:

Astronomy

May. 27, 2013 Rise Set
Actual Time 6:05 AM EDT 8:49 PM EDT
Civil Twilight 5:33 AM EDT 9:20 PM EDT
Nautical Twilight 4:53 AM EDT 10:00 PM EDT
Astronomical Twilight 4:08 AM EDT 10:46 PM EDT
Moon 11:27 PM EDT (5/27) 8:41 AM EDT (5/27)
Length of Visible Light 15h 47m
Length of Day
14h 43m
Waning Gibbous, 91% of the Moon is Illuminated
May 27
Waning Gibbous
May 31
Last Quarter
Jun 8
New
Jun 16
First Quarter
Jun 23
Full

Hourly Weather History & Observations

Time (EDT) Temp. Windchill Dew Point Humidity Pressure Visibility Wind Dir Wind Speed Gust Speed Precip Events Conditions
12:54 AM 45.0 °F - 42.1 °F 90% 30.26 in 10.0 mi Calm Calm - N/A   Clear
1:54 AM 46.0 °F 44.8 °F 43.0 °F 89% 30.26 in 10.0 mi ENE 3.5 mph - N/A   Clear
2:54 AM 46.9 °F - 44.1 °F 90% 30.24 in 10.0 mi Calm Calm - N/A   Clear
3:54 AM 50.0 °F - 42.1 °F 74% 30.23 in 10.0 mi Calm Calm - N/A   Clear
4:54 AM 48.9 °F - 43.0 °F 80% 30.23 in 10.0 mi Calm Calm - N/A   Clear
5:54 AM 50.0 °F - 42.1 °F 74% 30.23 in 10.0 mi North 3.5 mph - N/A   Partly Cloudy
6:54 AM 51.1 °F - 42.1 °F 71% 30.25 in 10.0 mi Calm Calm - N/A   Overcast
7:54 AM 51.1 °F - 44.1 °F 77% 30.25 in 10.0 mi Calm Calm - 0.00 in Rain Light Rain
8:54 AM 52.0 °F - 46.0 °F 80% 30.25 in 10.0 mi Calm Calm - 0.01 in Rain Light Rain
9:54 AM 53.1 °F - 48.0 °F 83% 30.26 in 10.0 mi Calm Calm - 0.01 in Rain Light Rain
10:54 AM 54.0 °F - 46.0 °F 75% 30.25 in 10.0 mi Calm Calm - 0.01 in Rain Light Rain
11:54 AM 54.0 °F - 48.0 °F 80% 30.25 in 9.0 mi ESE 4.6 mph - 0.02 in Rain Light Rain
12:54 PM 55.9 °F - 48.0 °F 75% 30.23 in 10.0 mi ESE 8.1 mph - 0.02 in   Overcast
1:54 PM 61.0 °F - 48.9 °F 64% 30.19 in 10.0 mi ESE 12.7 mph - N/A   Scattered Clouds
2:54 PM 63.0 °F - 45.0 °F 52% 30.17 in 10.0 mi East 12.7 mph 19.6 mph N/A   Scattered Clouds
3:54 PM 66.9 °F - 46.9 °F 49% 30.14 in 10.0 mi ESE 9.2 mph - N/A   Clear
4:54 PM 66.9 °F - 43.0 °F 42% 30.11 in 10.0 mi SE 9.2 mph 16.1 mph N/A   Clear
5:54 PM 66.9 °F - 44.1 °F 44% 30.09 in 10.0 mi SE 9.2 mph - N/A   Clear
6:54 PM 66.9 °F - 46.0 °F 47% 30.06 in 10.0 mi ESE 8.1 mph - N/A   Clear
7:54 PM 64.9 °F - 46.9 °F 52% 30.06 in 10.0 mi ESE 4.6 mph - N/A   Clear
8:54 PM 64.0 °F - 46.9 °F 54% 30.05 in 10.0 mi ESE 5.8 mph - N/A   Partly Cloudy
9:54 PM 63.0 °F - 48.0 °F 58% 30.04 in 10.0 mi East 5.8 mph - N/A   Mostly Cloudy
10:54 PM 62.1 °F - 50.0 °F 65% 30.04 in 10.0 mi ESE 4.6 mph - 0.00 in Rain Light Rain
11:54 PM 60.1 °F - 53.1 °F 78% 30.04 in 10.0 mi Calm Calm - 0.00 in   Overcast